www.pogodaiklimat.ru

Погода и климат >> Архив погоды >> Россия >> Калининградская область >> Мамоново


ПОГОДА в Мамоново

  • Прогноз погоды в Мамоново
  • Монитор погоды в Мамоново

АРХИВ ПОГОДЫ в Мамоново

Время (UTC), дата Ветер
(напр.,м/с)
 
Видим.   Явления Облачность Т
(С)
Тd
(С)
f
(%)
Тe
(С)
Тes
(С)
Комфортность P
(гПа)
Po
(гПа)
Тmin
(С)
Tmax
(С)
R
(мм)
R24
(мм)
S
(см)
00 13.06 ЮВ 3-6
{6}
10 км ясно +23.8 +16.5 64 +27 +27 жарко 1010.9 1008.2
03 13.06 ЮВ 2-4
{7}
10 км в посл. час ливневой дождь 9/0
[Ci fib]
+21.7 +17.7 78 +26 +26 душно 1011.0 1008.2 +20.9 1
06 13.06 Ю 2-3
{5}
10 км {ливн. осадки} 8/0
[Ci fib]
+25.1 +19.7 72 +31 +35 очень
душно
1012.2 1009.5 +20.9 1
09 13.06 Ю 2
{4}
10 км 9/0
[Ci fib]
+2.4 +14.8 100 -1 +11 1014.5 1011.5
12 13.06 СЗ 7-13
{13}
4000 м гроза, ливневой дождь 10/10 300 м
[Cb cap]
+18.9 +17.1 89 +20 +20 1015.9 1013.1
15 13.06 В 3-6
{13}
4000 м гроза, ливневой дождь 10/10 300 м
[Cb cap]
+17.9 +17.3 96 +18 +18 1015.7 1012.9 13
18 13.06 С 2-3
{7}
10 км {гроза, ливн. осадки} 10/10 300 м
[Sc]
+18.2 +17.2 94 +19 +19 1016.5 1013.7 +28.4 13
21 13.06 С 1-3
{4}
4000 м дымка 10/10 300 м
[Sc]
+17.9 +17.3 96 +19 +19 1015.7 1012.9
00 14.06 СЗ 1-1
{3}
10 км в посл. час гроза {ливн. осадки} 10/10 300 м
[Sc]
+17.3 +16.8 97 +18 +18 1017.2 1014.4
03 14.06 С 1-2
{3}
10 км 10/10 300 м
[Sc]
+17.4 +16.9 97 +18 +18 1017.6 1014.8 +17.2 0.4
06 14.06 З 2-5
{5}
4000 м слаб. ливневой дождь 10/10 300 м
[Cb cap]
+18.1 +17.1 94 +19 +19 1019.5 1016.7 +17.2 0.0
09 14.06 СЗ 3-5
{6}
10 км {ливн. осадки} 3/0
[Ci fib]
+20.4 +12.9 62 +23 +34 комфорт 1020.9 1018.1
12 14.06 СЗ 2-4
{5}
10 км {ливн. осадки} 3/0
[Ci fib]
+22.2 +12.0 52 +25 +39 комфорт 1021.8 1019.0
15 14.06 СЗ 3-5
{5}
10 км ясно +22.4 +12.8 55 +25 +31 комфорт 1021.5 1018.7
18 14.06 С 2-3
{5}
10 км 4/0
[Ci fib]
+19.7 +15.5 77 +22 +23 комфорт 1020.9 1018.1 +23.2
21 14.06 В 1-1
{3}
10 км ясно +15.3 +14.5 95 +16 +16 1021.7 1018.9
00 15.06 В 1-2
{2}
10 км ясно +13.8 +13.4 97 +14 +14 1020.8 1017.9
03 15.06 СВ 1-2
{2}
4000 м дымка 8/8 300 м
[Sc]
+13.7 +13.4 98 +14 +14 1020.6 1017.7 +12.6
06 15.06 В 2-4
{6}
10 км 4/4
[Sc]
+19.6 +17.5 88 +23 +26 комфорт 1019.8 1017.0 +12.6
09 15.06 В 3-7
{7}
10 км 8/8 300 м
[Cu Sc]
+24.1 +16.5 63 +28 +30 душно 1018.4 1015.6
12 15.06 В 4-7
{8}
10 км 6/0
[Ci fib]
+25.9 +17.6 60 +30 +39 душно 1016.2 1013.5
15 15.06 В 3-6
{8}
10 км 4/0
[Ci fib]
+27.1 +16.3 52 +31 +36 душно 1015.0 1012.3
18 15.06 В 3-6
{9}
10 км 3/0
[Ci fib]
+24.1 +16.9 64 +28 +28 душно 1013.1 1010.4 +27.4
21 15.06 В 5-10
{10}
10 км 8/8 300 м
[Sc]
+22.9 +14.2 58 +26 +26 жарко 1010.8 1008.1
00 16.06 В 3-5
{11}
4000 м гроза, ливневой дождь 10/10 300 м
[Cb cap]
+17.7 +17.4 98 +18 +18 1011.6 1009.0
03 16.06 ЮВ 3-5
{9}
н/о н/о +17.7 +16.7 94 +17.5 3
06 16.06 ЮЗ 3-4
{5}
10 км {гроза, ливн. осадки} 10/10 300 м
[Sc]
+18.9 +17.5 92 +21 +21 комфорт 1012.9 1010.3 +17.5 9
09 16.06 ЮЗ 3-4
{7}
10 км 10/10 300 м
[Sc]
+20.1 +18.0 88 +24 +24 комфорт 1013.7 1011.1
12 16.06 З 4-9
{9}
10 км {ливн. осадки} 10/10 300 м
[Sc]
+18.4 +16.7 90 +19 +19 1015.3 1012.7
15 16.06 З 4-8
{8}
10 км {ливн. осадки} 10/10 300 м
[Sc]
+18.5 +16.3 87 +19 +19 1016.2 1013.4 0.4
18 16.06 З 4-8
{9}
10 км {ливн. осадки} 10/10 300 м
[Sc]
+17.3 +15.3 88 +17 +17 1017.0 1014.3 +21.4 0.4
21 16.06 З 4-8
{9}
10 км 10/10 300 м
[Sc]
+16.4 +14.9 91 +16 +16 1017.5 1014.8
00 17.06 З 4-7
{8}
10 км 10/10 300 м
[Sc]
+16.5 +14.3 87 +16 +16 1017.8 1015.0
03 17.06 З 4-6
{7}
10 км 10/10 300 м
[Sc]
+16.4 +14.2 87 +16 +16 1018.5 1015.7 +16.2
06 17.06 З 4-7
{9}
10 км 10/10 300 м
[Sc]
+17.2 +15.2 88 +17 +17 1019.4 1016.4 +16.2
09 17.06 СЗ 5-8
{9}
10 км 10/10 300 м
[Sc]
+17.9 +14.5 80 +17 +17 1021.1 1018.1
12 17.06 СЗ 4-7
{9}
10 км 8/8 300 м
[Sc]
+19.4 +14.3 72 +21 +23 комфорт 1022.1 1019.3
15 17.06 СЗ 3-5
{7}
10 км ясно +19.9 +13.3 66 +22 +28 комфорт 1022.3 1019.5 0.1
18 17.06 СЗ 1-2
{6}
10 км ясно +18.4 +12.3 68 +20 +20 1021.7 1018.9 +20.4
21 17.06 штиль 0-1
{2}
4000 м дымка ясно +12.4 +11.6 95 +12 +12 1021.8 1018.9
00 18.06 ЮВ 1-1
{1}
4000 м дымка ясно +10.7 +10.2 97 +10 +10 1022.2 1019.3
03 18.06 ЮВ 1-1
{1}
10 км ясно +10.6 +10.2 97 +10 +10 1022.3 1019.4 +10.2
06 18.06 ЮЗ 1-2
{2}
10 км ясно +19.1 +15.1 78 +22 +28 комфорт 1022.2 1019.4 +10.2 0.3
09 18.06 З 1-4
{5}
10 км ясно +22.7 +14.3 59 +26 +43 жарко 1022.2 1019.4
12 18.06 СЗ 2-4
{5}
10 км 3/3 300 м
[Cu hum]
+23.5 +12.9 51 +26 +36 жарко 1021.4 1018.6
15 18.06 штиль 0-1
{4}
10 км 3/3 300 м
[Cu hum]
+24.8 +11.4 43 +26 +32 жарко 1019.8 1017.0
18 18.06 СВ 1-2
{3}
10 км 5/0
[Ci fib]
+22.7 +13.4 56 +26 +26 жарко 1018.5 1015.7 +25.3
21 18.06 В 1-1
{2}
10 км 5/0
[Ci fib]
+15.7 +14.5 93 +16 +16 1018.6 1015.8
00 19.06 ЮВ 1-2
{2}
10 км 5/0
[Ci fib]
+13.6 +12.5 93 +14 +14 1018.0 1015.1
03 19.06 ЮВ 2-2
{3}
10 км ясно +15.2 +12.9 86 +15 +15 1017.3 1014.5 +13.6
06 19.06 ЮВ 2-3
{3}
10 км ясно +22.7 +15.5 64 +27 +32 душно 1016.6 1013.8 +13.6 0.3
09 19.06 В 2-4
{6}
10 км ясно +26.4 +14.6 48 +29 +43 жарко 1015.4 1012.7
12 19.06 ЮВ 3-5
{6}
10 км 8/8 300 м
[Cu Sc]
+27.8 +15.9 48 +31 +33 душно 1013.8 1011.1
15 19.06 В 2-3
{7}
10 км в посл. час ливневой дождь 8/8 300 м
[Cu Sc]
+26.8 +17.3 56 +31 +32 душно 1012.4 1009.7 0.0
18 19.06 В 2-3
{6}
10 км {ливн. осадки} ясно +24.9 +17.1 62 +29 +29 душно 1011.2 1008.5 +28.1 0.0
21 19.06 В 2-4
{4}
10 км 3/0
[Ci fib]
+21.2 +16.6 75 +25 +25 комфорт 1010.9 1008.1

 

Местоположение метеостанции Мамоново (Калининградская область, Россия): широта 54.47 долгота 19.93 высота над уровнем моря 23 м.

В архиве по умолчанию представлена погода в Мамоново за последнюю неделю. Архивные данные за месяц целиком и за предыдущие месяцы, начиная с января 2011 года, Вы можете получить, выбрав интересующий диапазон дат из раскрывающегося списка и нажав кнопку "Ввод!".


*Определитесь, кто Вы:
робот инопланетянин человек

Внимание! Время в таблицах - всемирное. Для получения местного времени необходимо прибавить поправку, которая равна 2 ч.

Смотрите также архив погоды в соседних городах и на ближайших метеорологических станциях:

Погода в Балтийске (Калининградская область, Россия) (20 км)
Погода в Рыбном Порту (Калининградская область, Россия) (42 км)
Погода в Эльблонге (Польша) (47 км)
Погода в Калининграде (Калининградская область, Россия) (51 км)
Погода в Пионерском (Калининградская область, Россия) (56 км)
Погода в Хеле (Польша) (73 км)
Погода в Ольштыне (Польша) (84 км)
Погода в Железнодорожном (Калининградская область, Россия) (89 км)
Погода на Авиабазе Гдыня-Оксывье (Польша) (92 км)
Погода в Рыбачем (Калининградская область, Россия) (96 км)

Пояснения к столбцам:

Ветер - указаны скорость ветра в м/с - средняя за 10 мин, порывы в срок и между сроками (в фигурных скобках) и направление, откуда дует ветер: С - северный, СВ - северо-восточный, В - восточный, ЮВ - юго-восточный, Ю - южный, ЮЗ - юго-западный, З - западный, СЗ - северо-западный.
Видимость - горизонтальная дальность видимости в метрах или километрах. При видимости от 1 до 10 км при отсутствии осадков обычно наблюдается дымка, при ухудшении видимости до 1 км и менее - туман. В сухую погоду видимость может ухудшаться дымом, пылью или мглою.
Явления - указаны атмосферные явления, наблюдавшиеся в срок или в последний час перед сроком; фигурными скобками обозначены явления, наблюдавшиеся между сроками (за 1-3 часа до срока); квадратными скобками обозначены град или гололедные отложения с указанием их диаметра в мм.
Облачность - указаны через наклонную черту общая и нижняя облачность в баллах и высота нижней границы облаков в метрах; квадратными скобками обозначены формы облаков: Ci - перистые, Cs - перисто-слоистые, Cc - перисто-кучевые, Ac - высококучевые, As - высокослоистые, Sc - слоисто-кучевые, Ns - слоисто-дождевые, Cu - кучевые, Cb - кучево-дождевые. Подробнее классификацию облаков см. в Атласе облаков (PDF).
T - Температура воздуха - температура, измеренная на высоте 2 м над землей.
Td - Температура точки росы - температура, при понижении до которой содержащийся в воздухе водяной пар достигнет насыщения.
f - Относительная влажность воздуха - влажноcть воздуха, измеренная на высоте 2 м над землей.
Te - Эффективная температура - температура, которую ощущает одетый по сезону человек в тени. Характеристика душности погоды. При расчете учитывается влияние влажности воздуха и скорости ветра на теплоощущения человека.
Tes - Эффективная температура на солнце - температура, которую ощущает человек, с поправкой на солнечный нагрев. Характеристика знойности погоды. Зависит от высоты солнца над горизонтом, облачности и скорости ветра. Ночью, в пасмурную погоду, а также при ветре 12 м/с и более поправка равна нулю.
P - Атмосферное давление - приведенное к уровню моря атмосферное давление.
Po - Атмосферное давление - измеренное на уровне метеостанции атмосферное давление.
Tmin - Минимальная температура - минимум температуры воздуха на высоте 2 м над землей.
Tmax - Максимальная температура - максимум температуры воздуха на высоте 2 м над землей.
R - Количество осадков - Количество выпавших осадков за период времени, мм. При наведении курсора мыши на число - период времени, за который выпало указанное количество осадков.
R24 - Количество осадков - Количество выпавших осадков за 24 часа, мм.
S - Снежный покров - Высота снежного покрова, см. При наведении курсора мыши на число - состояние снежного покрова и степень покрытия местности в баллах.